Home > Weather > San Miguel > Past weeks

Flag for El Salvador Weather for the Past 2 Weeks in San Miguel, El Salvador

Now
77 °F

Clear.


Feels Like: 79 °F
Forecast: 67 / 94 °F
Wind: 14 mph from Northeast

Location: El Salvador Intl. Airport / Comalapa

Current Time: Feb 13, 2016 at 5:40:49 AM

Latest Report: Feb 13, 2016 at 4:50 AM


Visibility: 10 mi

Pressure: 29.86 "Hg

Humidity: 54%

Dew point: 59 °F

Location of San MiguelLocation

Historic Weather in San Miguel — Graph

°F

San Miguel Temperature Yesterday

Maximum temperature yesterday: 95 °F (at 12:50 PM)
Minimum temperature yesterday: 75 °F (at 2:50 AM)
Average temperature yesterday: 83 °F

High & Low Weather Summary for the Past Weeks

 TemperatureHumidityPressure
High95 °F (Jan 30, 12:50 PM)94% (Jan 29, 10:50 PM)29.98 "Hg (Jan 29, 10:50 PM)
Low68 °F (Feb 1, 4:50 AM)28% (Feb 8, 2:50 PM)29.77 "Hg (Feb 1, 2:50 PM)
Average81 °F55%29.87 "Hg
* Reported Jan 29 3:50 AM — Feb 13 3:50 AM, San Miguel, Weather by CustomWeather, © 2016

Note: Actual official high and low records may vary slightly from our data, if they occured in-between our weather recording intervals... More about our weather records

Advertising

San Miguel Weather History for the Previous 24 Hours

 ConditionsComfort  
Time TempWeatherWind HumidityBarometerVisibility
3:50 AM
Sat, Feb 13
79 °FClear.10 mph54%29.83 "Hg10 mi
2:50 AM79 °FClear.10 mph54%29.83 "Hg10 mi
1:50 AM77 °FClear.10 mph57%29.83 "Hg10 mi
11:50 PM
Fri, Feb 12
79 °FClear.13 mph54%29.89 "Hg10 mi
10:50 PM81 °FClear.14 mph51%29.89 "Hg10 mi
9:50 PM81 °FClear.10 mph51%29.92 "Hg10 mi
8:50 PM82 °FClear.14 mph48%29.89 "Hg10 mi
7:50 PM84 °FClear.12 mph45%29.89 "Hg10 mi
6:50 PM82 °FClear.6 mph62%29.86 "Hg10 mi
5:50 PM84 °FSunny.7 mph58%29.83 "Hg10 mi
4:50 PM88 °FSunny.8 mph49%29.83 "Hg10 mi
3:50 PM88 °FSunny.9 mph49%29.80 "Hg10 mi
2:50 PM93 °FSunny.7 mph47%29.80 "Hg10 mi
1:50 PM95 °FSunny.15 mph32%29.80 "Hg10 mi
12:50 PM95 °FSunny.16 mph32%29.83 "Hg10 mi
11:50 AM91 °FSunny.15 mph36%29.89 "Hg10 mi
10:50 AM90 °FSunny.17 mph36%29.92 "Hg10 mi
9:50 AM86 °FSunny.18 mph40%29.95 "Hg10 mi
8:50 AM84 °FPassing clouds.10 mph43%29.95 "HgN/A
7:50 AM79 °FSunny.14 mph48%29.92 "Hg10 mi
6:50 AM77 °FSunny.12 mph47%29.92 "Hg10 mi
5:50 AM75 °FClear.10 mph50%29.92 "Hg10 mi
Weather by CustomWeather, © 2016

See weather overviewHow to use our weather pages